Terug naar catalogus

CZ-6A DEB

ActiefSSO
NORAD 54952·DEBRIS·🇨🇳 China

Gelanceerd Nov 11, 2022 vanaf Taiyuan Satellite Launch Center

Loading…

Volgende Passages (komende 24 uur)

TLE

VersSource: Space-Track

Epoch: Sep 14, 2026, 22:31 UTC

1 54952U 22151SR  26257.93840486  .00000337  00000-0  26372-3 0  9996
2 54952  98.9568 234.1656 0112820 185.6131 174.3774 13.95789409195326

Volg CZ-6A DEB in realtime met AllMySat

Download on the App Store